Location: Bogis-Bossey
(46.3500°N, 6.1667°E)
Time: 16:45:30
(UTC+00:00)

Meteor 1-11 Rocket - Pass Details

Date: 17 August 2022
Orbit: 831 x 915 km, 81.2° (Epoch: 30 September)

Event Time Altitude Azimuth Distance (km) Brightness Sun altitude
Exits shadow 22:33:36 78° 302° (WNW) 856 3.6 -28.7°
Drops below altitude 10° 22:39:00 10° 9° (N) 2,450 6.9 -28.9°
Sets 22:41:25 0° 11° (N) 3,390 7.8 -29.1°
